Vorticity
8 7 5 4 2 5 5 2 1 4 2 1 1 1 1 1 1 1 2 1 1 -4 14 15 21 8 10 8 10 9 10 10 9 9 10 10 10 11 11 11 10 9 9
7 10 6 3 3 2 3 3 3 3 2 1 1 1 1 2 2 2 -1 -3 10 17 20 12 12 7 12 12 12 12 10 9 10 11 11 11 9 8 9 8 10 10 10
3 6 8 7 2 3 4 -1 3 6 4 3 4 4 4 3 2 -1 1 20 19 15 14 8 12 14 2 3 11 9 8 11 10 9 8 8 8 9 9 11 11 13 11
6 6 7 8 6 4 6 6 -5 2 3 4 3 0 -2 -4 -2 7 19 8 8 18 10 3 6 15 21 6 5 12 10 8 8 7 8 9 10 11 12 11 10 9 10
12 9 6 9 7 8 -5 4 13 6 2 -2 -2 -3 6 17 16 7 12 24 12 10 7 11 10 2 7 8 6 8 8 7 7 9 9 10 10 9 9 9 10 10 9
6 16 14 11 5 6 1 -9 9 4 -0 -3 -1 4 1 6 15 21 9 10 19 4 11 10 -1 8 6 10 8 9 8 6 7 8 9 8 8 9 10 10 9 9 8
12 9 10 9 3 7 7 10 3 -4 -4 -3 26 24 20 21 19 12 16 13 7 0 9 3 8 12 7 9 9 6 6 8 9 8 7 9 11 10 10 11 10 6 4
13 7 9 14 0 7 12 14 8 33 19 22 27 23 8 15 17 16 3 7 6 9 7 10 8 7 8 8 7 8 8 7 6 6 10 9 10 11 8 5 4 7 10
2 -1 4 3 10 -2 19 15 15 11 7 7 8 9 17 9 8 9 6 7 10 8 7 7 7 8 9 8 7 7 6 5 6 11 10 11 11 6 5 6 10 7 9
17 17 20 21 19 20 9 9 8 8 11 14 13 14 9 11 8 6 10 7 8 10 7 7 8 8 8 7 6 6 6 5 9 10 11 10 5 5 10 8 8 10 11
2 0 -0 0 3 4 7 11 14 13 11 9 10 8 7 6 10 10 8 9 8 6 7 7 8 8 7 6 6 5 7 6 11 10 11 6 4 10 7 9 10 11 12
6 6 5 4 3 7 11 14 10 9 12 8 8 6 8 9 9 9 10 10 6 6 7 8 8 7 6 5 6 7 4 10 11 10 8 4 10 10 10 10 11 12 13
7 5 6 8 10 9 7 8 7 6 7 7 8 7 7 9 9 9 9 7 6 7 7 8 7 6 5 6 7 4 4 16 10 10 4 9 11 9 8 11 12 13 16
4 10 11 9 8 7 7 7 7 7 5 5 7 8 10 9 10 9 7 5 6 7 7 7 6 4 6 6 5 5 5 12 12 7 6 10 9 8 10 12 12 16 14
9 12 10 9 8 8 9 9 8 10 5 7 9 11 9 10 9 8 5 5 6 6 6 6 5 6 6 6 3 6 5 11 11 3 9 9 9 10 13 12 15 14 15
14 9 7 7 8 11 11 9 7 9 5 11 9 9 10 8 8 6 5 5 5 5 6 7 6 6 6 5 5 8 8 12 7 5 10 8 12 14 11 13 13 14 18
10 9 8 9 9 9 10 7 7 9 7 8 9 9 9 8 6 5 4 5 5 5 5 6 5 6 6 5 5 5 11 12 5 9 7 14 11 12 10 14 14 16 17
9 8 8 8 8 8 7 9 13 6 10 8 8 10 7 8 6 5 5 5 6 6 6 5 6 5 5 5 3 4 13 9 7 7 9 13 14 11 12 14 15 16 15
6 8 9 10 11 13 11 11 13 9 8 10 8 9 8 7 5 4 4 3 4 5 6 6 5 6 6 6 3 7 13 7 8 5 13 12 14 9 14 14 16 15 14
11 14 16 14 11 8 5 10 10 10 7 8 9 8 8 5 4 3 3 2 3 4 4 6 6 5 7 8 5 12 12 8 7 7 16 15 10 9 14 14 16 13 13
17 14 10 10 7 11 28 20 10 5 10 8 10 8 7 5 4 3 2 3 3 4 5 6 6 5 6 7 6 13 11 6 5 14 13 15 9 10 14 14 14 12 12
11 9 9 5 7 13 11 7 3 9 8 10 9 7 7 5 4 3 3 3 3 5 6 6 6 5 6 5 5 14 10 6 8 13 14 13 8 12 14 14 14 12 12
2 3 5 6 5 9 6 6 7 8 8 9 8 8 7 5 3 3 3 3 4 5 6 7 6 5 6 7 9 14 7 4 9 13 15 15 8 13 14 14 13 11 10
8 12 7 5 7 11 9 5 8 7 8 8 9 8 7 6 5 4 4 3 5 7 6 7 6 6 5 8 12 12 6 4 9 14 15 13 8 14 13 12 12 11 10
2 1 11 13 10 12 9 5 9 7 7 7 9 8 7 6 5 4 4 5 6 8 8 7 6 6 5 6 14 9 6 5 11 14 15 11 8 12 15 11 11 11 9
7 10 1 7 13 11 8 5 9 7 8 8 8 8 7 5 5 4 5 5 7 7 7 7 6 6 6 5 16 7 6 5 12 13 14 12 8 13 16 11 8 11 7
Height
5844 5844 5845 5846 5847 5847 5846 5846 5845 5844 5844 5843 5841 5839 5837 5835 5833 5830 5827 5825 5822 5818 5814 5811 5807 5804 5799 5795 5790 5786 5782 5778 5773 5768 5764 5759 5755 5750 5745 5740 5736 5731 5726
5841 5842 5842 5842 5843 5843 5843 5842 5841 5840 5839 5838 5837 5834 5832 5830 5827 5824 5821 5818 5815 5810 5806 5803 5800 5796 5793 5788 5784 5780 5776 5771 5766 5762 5757 5752 5747 5741 5735 5730 5725 5721 5716
5835 5836 5837 5838 5838 5838 5837 5836 5835 5835 5834 5833 5831 5829 5827 5824 5821 5818 5816 5812 5807 5803 5800 5797 5793 5790 5786 5782 5778 5773 5768 5763 5759 5754 5749 5743 5738 5733 5728 5722 5716 5711 5707
5830 5831 5831 5832 5832 5832 5831 5830 5829 5828 5827 5826 5825 5823 5821 5818 5816 5812 5809 5805 5801 5798 5795 5791 5788 5785 5780 5776 5772 5767 5762 5758 5753 5747 5742 5736 5729 5724 5719 5713 5707 5702 5696
5824 5824 5825 5826 5826 5826 5825 5823 5823 5822 5821 5819 5818 5816 5814 5813 5809 5805 5801 5798 5796 5792 5791 5787 5784 5780 5776 5771 5767 5762 5757 5752 5747 5740 5734 5728 5722 5716 5710 5704 5699 5693 5686
5819 5818 5818 5819 5819 5820 5818 5816 5816 5816 5816 5814 5811 5810 5808 5805 5802 5798 5795 5792 5790 5788 5786 5783 5780 5777 5772 5766 5762 5757 5752 5747 5741 5734 5727 5721 5714 5707 5700 5694 5688 5681 5675
5815 5813 5812 5813 5813 5811 5810 5809 5808 5809 5806 5807 5805 5803 5799 5798 5795 5794 5791 5789 5787 5785 5783 5779 5775 5771 5767 5763 5757 5752 5746 5740 5733 5726 5719 5713 5705 5699 5692 5685 5678 5672 5664
5809 5808 5807 5807 5807 5805 5805 5803 5802 5802 5799 5798 5798 5796 5795 5793 5791 5790 5788 5785 5783 5781 5778 5775 5771 5768 5763 5758 5753 5747 5741 5734 5727 5719 5712 5705 5697 5690 5683 5675 5668 5659 5650
5804 5803 5802 5802 5802 5801 5800 5799 5798 5796 5795 5795 5793 5793 5791 5790 5788 5786 5784 5782 5780 5777 5775 5772 5768 5764 5760 5754 5749 5743 5736 5729 5721 5713 5704 5696 5689 5682 5673 5664 5655 5645 5636
5800 5800 5799 5798 5798 5797 5796 5796 5795 5793 5793 5791 5791 5789 5788 5787 5785 5783 5781 5779 5777 5775 5772 5768 5764 5760 5755 5750 5744 5737 5731 5722 5713 5705 5697 5689 5681 5672 5663 5653 5643 5633 5622
5797 5796 5796 5795 5795 5794 5792 5792 5791 5790 5790 5789 5788 5786 5786 5784 5783 5781 5779 5777 5775 5772 5769 5765 5760 5756 5750 5744 5738 5732 5724 5715 5706 5698 5690 5681 5672 5662 5653 5642 5632 5620 5607
5792 5792 5792 5792 5791 5791 5790 5789 5788 5788 5788 5786 5785 5784 5782 5781 5780 5778 5776 5774 5772 5769 5764 5760 5755 5750 5745 5739 5733 5726 5718 5709 5700 5691 5682 5673 5663 5653 5642 5631 5619 5607 5594
5789 5789 5788 5788 5788 5788 5787 5786 5786 5786 5785 5783 5783 5781 5780 5779 5777 5775 5773 5771 5768 5765 5761 5756 5751 5746 5741 5735 5728 5720 5712 5702 5693 5684 5675 5665 5655 5644 5632 5620 5607 5594 5582
5787 5785 5785 5785 5785 5784 5784 5783 5783 5782 5781 5780 5779 5778 5777 5775 5774 5772 5770 5768 5765 5761 5757 5752 5747 5742 5736 5730 5723 5714 5705 5696 5687 5677 5667 5657 5646 5634 5622 5609 5597 5584 5572
5782 5782 5781 5781 5781 5782 5781 5780 5779 5779 5778 5777 5776 5774 5773 5772 5770 5769 5767 5764 5761 5757 5753 5748 5743 5738 5732 5726 5718 5709 5700 5691 5680 5670 5660 5649 5637 5625 5613 5600 5587 5574 5562
5777 5777 5777 5777 5777 5777 5777 5777 5776 5775 5775 5774 5773 5771 5770 5769 5767 5766 5764 5761 5757 5753 5749 5744 5739 5734 5728 5721 5713 5704 5694 5684 5674 5664 5652 5641 5629 5617 5605 5591 5578 5566 5555
5772 5772 5773 5773 5773 5773 5773 5772 5772 5772 5772 5771 5770 5768 5767 5766 5765 5763 5761 5758 5754 5751 5746 5741 5736 5729 5722 5715 5706 5697 5687 5678 5667 5656 5645 5634 5622 5610 5598 5585 5572 5560 5549
5767 5768 5768 5769 5769 5769 5768 5768 5769 5768 5768 5767 5766 5765 5764 5764 5763 5761 5758 5755 5752 5747 5742 5737 5731 5724 5717 5710 5701 5693 5682 5672 5662 5650 5639 5627 5616 5604 5592 5579 5567 5556 5545
5762 5762 5764 5764 5764 5764 5764 5764 5765 5765 5764 5764 5763 5763 5761 5761 5760 5757 5755 5752 5748 5744 5738 5733 5727 5720 5712 5705 5697 5687 5677 5667 5656 5645 5634 5622 5610 5599 5587 5575 5563 5552 5541
5757 5756 5758 5759 5760 5760 5760 5760 5760 5760 5760 5760 5760 5759 5758 5757 5756 5754 5752 5748 5744 5739 5734 5728 5722 5715 5708 5701 5692 5682 5672 5662 5651 5639 5628 5616 5605 5594 5582 5571 5560 5549 5538
5752 5753 5754 5756 5756 5756 5754 5755 5756 5756 5756 5756 5756 5755 5754 5753 5752 5750 5747 5744 5740 5735 5730 5724 5718 5711 5704 5695 5687 5678 5667 5656 5645 5633 5622 5611 5601 5590 5578 5567 5556 5546 5536
5748 5749 5750 5752 5752 5752 5751 5752 5753 5753 5753 5752 5752 5751 5749 5749 5747 5745 5743 5739 5735 5731 5725 5719 5713 5707 5700 5691 5683 5672 5662 5651 5641 5630 5618 5608 5597 5586 5576 5566 5555 5545 5535
5744 5746 5747 5747 5748 5749 5749 5749 5749 5749 5748 5748 5747 5747 5746 5744 5743 5741 5738 5734 5730 5725 5720 5715 5709 5702 5695 5687 5678 5668 5658 5649 5638 5627 5616 5606 5596 5585 5575 5565 5554 5544 5534
5740 5741 5743 5743 5744 5744 5745 5745 5745 5744 5744 5744 5743 5742 5741 5740 5738 5736 5733 5729 5726 5721 5716 5711 5705 5697 5690 5682 5673 5663 5655 5646 5635 5623 5613 5604 5594 5583 5573 5564 5554 5544 5533
5735 5737 5738 5738 5739 5739 5740 5740 5740 5740 5739 5739 5738 5738 5737 5736 5734 5731 5728 5725 5721 5717 5712 5706 5700 5693 5685 5677 5668 5659 5651 5641 5631 5620 5610 5601 5592 5583 5572 5562 5553 5544 5534
5729 5731 5732 5733 5734 5735 5735 5735 5735 5735 5734 5734 5734 5733 5732 5730 5728 5726 5723 5720 5716 5712 5707 5702 5696 5688 5681 5673 5664 5656 5647 5637 5627 5617 5608 5600 5590 5580 5572 5562 5553 5544 5535